Regional Weather Roundup
Issued by NWS Mobile, AL

Home | Current Version | Previous Version | Text Only | Print | Product List | Glossary On
Versions: 1 2 3 4 5 6 7 8 9 10 11 12 13 14 15 16 17 18 19 20 21 22 23 24 25 26 27
000
ASUS44 KMOB 241412
RWRMOB
REGIONAL WEATHER ROUNDUP
NATIONAL WEATHER SERVICE MOBILE AL
800 AM CST TUE JAN 24 2017

NOTE: "FAIR" INDICATES FEW OR NO CLOUDS BELOW 12,000 FEET WITH NO
      SIGNIFICANT WEATHER AND/OR OBSTRUCTIONS TO VISIBILITY.

  * THESE STATIONS ARE PART OF THE UNIVERSITY OF SOUTH ALABAMA
    MESONET AND ARE NOT UNDER NWS OR FAA QUALITY CONTROL.

ALZ061>064-241500-
COASTAL ALABAMA

CITY           SKY/WX    TMP DP  RH WIND       PRES   REMARKS
MOBILE REG APT MOSUNNY   45  41  86 NW3       29.97R
BROOKLEY FIELD MOSUNNY   48  42  80 N8        29.98R
USA CAMPUS*      N/A     46  41  81 CALM      29.97R
DOG RIVER*       N/A     46  41  81 NW7       30.71R


CITY           SKY/WX    TMP DP  RH WIND       PRES   REMARKS
GULF SHORES    SUNNY     46  44  93 N3        29.97R

$$

ALZ051>060-241500-
INTERIOR SOUTHWEST AND SOUTH CENTRAL ALABAMA

CITY           SKY/WX    TMP DP  RH WIND       PRES   REMARKS
GREENVILLE     SUNNY     45  38  76 N7        29.91F
EVERGREEN      SUNNY     44  40  85 N6        29.94R
ATMORE*          N/A     45  43  93 NW5       29.97R
ANDALUSIA/OPP  CLOUDY    47  40  76 N9        29.94R
ANDALUSIA*       N/A     43  41  93 NW8       29.93R
FLORALA APT    CLOUDY    44  41  89 VRB7      29.95R
FLORALA*         N/A     43  41  93 SW5       30.63R

$$

FLZ001>006-241500-
WESTERN FLORIDA PANHANDLE

CITY           SKY/WX    TMP DP  RH WIND       PRES   REMARKS
PENSACOLA      SUNNY     48  41  76 N8        29.95R
NAS PENSACOLA  MOSUNNY   47  42  83 N6        29.96R
MILTON         SUNNY     45  41  86 N7        29.94R
WHTNG S FIELD  SUNNY     48  43  82 N10       29.95R


CITY           SKY/WX    TMP DP  RH WIND       PRES   REMARKS
JAY*             N/A     45  41  87 N10       29.96R
DUKE FIELD     SUNNY     45  41  86 N10       29.93R
CRESTVIEW      SUNNY     45  41  86 N7        29.95R
VALPARAISO     MOSUNNY   46  42  84 N9        29.94R
DESTIN         SUNNY     50  45  83 N10       29.94R

$$

MSZ076-079-241500-
INTERIOR SOUTHEAST MISSISSIPPI

CITY           SKY/WX    TMP DP  RH WIND       PRES   REMARKS
LEAKESVILLE*   NOT AVBL
AGRICOLA*      NOT AVBL

$$

MARINE OBSERVATIONS

STATION/POSITION TIME  TEMP    WIND        PRES    WAVE
                       AIR SEA DIR/SP/G            HT/PER
                 (UTC) (F)     (DEG/KT/KT) (MB)    (FT/S)
PASCAGOULA       1348   48      10/  8/ 10 1014.5R
PETIT BOIS ISLND 1348   50      20/ 14/ 16 1015.2R
GRAND BAY        1230   45      10/  3     1015.0R
KATRINA CUT      1300           10/ 11     1014.2
CEDAR POINT      1330   46     360/  7     1014.2R
E DAUPHIN ISLAND 1300   51     350/ 11/ 12 1013.7R
MIDDLE BAY LIGHT 1300   49     350/ 13     1013.9
USCG MOBILE BAY  1348   47 62  360/  5/  6 1015.5R
STATE DOCKS      1348      60              1014.7R
MEAHER PARK      1330   45     320/  4     1014.2R
WEEKS BAY        1245   44                   N/A
FORT MORGAN      1348   51      10/ 12/ 14   N/A
12 S ORANGE BCH  1250   52 64  350/ 10/ 12 1013.3R   2/ 7
PENSACOLA BAY    1348      61   10/  5/ 10 1014.4R
67 S FORT MORGAN 1330   63                 1013.5R

$$

SELECTED LOCATIONS ACROSS THE REGION

CITY           SKY/WX    TMP DP  RH WIND       PRES   REMARKS
NEW ORLEANS    MOSUNNY   52  48  86 E6        29.95R
GULFPORT       SUNNY     48  43  82 NE5       29.96R
PASCAGOULA AP  MOSUNNY   47  42  83 N3        29.97R
PASCAGOULA*    NOT AVBL
HATTIESBURG    SUNNY     41  39  93 CALM      29.98R
LAUREL         SUNNY     39  36  87 CALM      29.98S
MERIDIAN       CLOUDY    37  37 100 S3        29.97R FOG
JACKSON        MOSUNNY   41  39  93 CALM      29.93S
MONTGOMERY     SUNNY     47  38  71 W8        29.94R
TROY           MOSUNNY   46  41  82 NW6       29.93R
ASHFORD*         N/A     43  41  93 NW8       29.93R
DOTHAN         CLOUDY    44  44 100 NW14      29.94R FOG
PANAMA CITY    SUNNY     49  44  83 NW9       29.92R

$$





USA.gov is the U.S. government's official web portal to all federal, state and local government web resources and services.